Location: Hilton Head Island
(32.2163°N, 80.7526°W)
Time: 16:14:51
(UTC-05:00)

Explorer 11/Cluster Stage 4 - Pass Details

Date: 17 February 2026
Orbit: 463 x 1176 km, 28.8° (Epoch: 6 March)

Event Time Altitude Azimuth Distance (km) Brightness Sun altitude
Rises 17:05:09 0° 267° (W) 2,476 10.6 12.4°
Reaches altitude 10° 17:07:24 10° 258° (WSW) 1,600 10.6 12.0°
Maximum altitude 17:10:41 33° 192° (SSW) 808 7.3 11.3°
Drops below altitude 10° 17:14:10 10° 126° (SE) 1,709 8.1 10.6°
Sets 17:16:39 0° 117° (ESE) 2,676 8.9 10.1°
